Vorticity
11 10 8 6 7 7 6 7 8 9 12 11 15 18 18 12 11 -3 12 2 8 18 29 1 15 17 11 9 12 6 12 2 6 13 11 -1 7 7 16 6 2 7 15 12 33 14 14 37 25 16 26 6 -12 14
5 7 6 6 7 6 7 7 7 9 12 10 17 16 13 14 -4 -35 3 2 18 11 13 9 7 1 -1 14 8 6 15 2 11 11 15 10 6 3 8 5 12 16 12 -3 -4 -12 -21 -13 -10 5 -2 -1 4 8
7 7 5 6 7 7 8 6 9 11 10 10 13 18 11 26 1 -15 -17 6 10 18 20 10 9 19 11 9 -1 1 5 10 11 6 6 6 6 10 7 15 21 10 12 3 13 13 13 9 9 6 1 5 11 12
5 6 5 5 6 8 7 6 9 15 9 9 9 12 8 10 -3 5 5 8 10 8 11 12 8 8 6 6 8 1 9 14 10 10 8 5 3 13 10 8 5 5 5 4 3 7 15 14 12 12 14 15 14 12
6 7 3 8 4 7 7 5 7 9 12 8 4 11 13 12 11 9 12 12 10 -5 29 13 7 5 8 3 4 9 13 8 8 7 6 8 7 5 9 12 4 9 13 14 15 18 8 6 8 7 9 12 12 12
6 7 8 6 4 2 5 6 8 7 7 10 17 18 6 8 8 11 10 10 8 10 20 13 9 6 3 5 5 7 11 10 9 10 9 8 8 8 13 6 7 15 8 6 7 8 8 13 15 12 11 14 15 17
9 6 10 6 14 1 6 8 8 9 7 7 6 7 8 8 5 6 2 6 3 4 4 4 21 11 9 8 9 10 8 6 8 7 6 7 6 6 4 -3 10 7 7 7 7 9 9 7 5 5 13 13 15 14
9 1 3 11 12 -12 13 6 9 5 3 5 6 6 7 8 7 6 7 6 9 5 4 11 5 11 10 8 6 4 6 8 5 4 4 4 7 6 6 7 6 9 7 3 3 5 7 9 10 11 13 15 13 17
4 -2 3 4 53 3 2 10 8 6 6 6 7 8 7 6 8 8 8 7 6 6 10 14 7 7 8 0 2 4 3 6 9 6 10 14 5 6 -2 -5 4 5 6 6 8 11 12 13 12 11 11 13 15 9
6 6 7 5 11 23 0 5 9 6 9 9 6 5 6 4 7 8 10 7 6 4 3 -0 2 2 5 3 8 15 9 15 1 15 27 20 11 14 10 9 13 16 17 18 13 15 14 14 14 15 13 16 13 53
10 11 17 18 13 14 7 4 5 8 8 10 7 8 7 14 11 10 11 14 20 21 14 7 3 6 7 7 5 8 1 -0 19 22 18 12 12 11 15 16 14 9 15 16 12 14 15 14 7 15 27 31 16 18
26 3 -4 -9 1 10 10 10 14 19 11 15 10 12 14 11 14 16 21 24 9 21 8 7 21 27 24 14 17 19 20 23 8 26 30 27 10 20 18 14 14 11 6 10 22 22 23 31 38 37 27 18 9 5
13 31 42 36 2 -15 -6 2 16 13 6 9 13 15 13 17 12 4 10 11 19 7 3 10 14 13 16 19 25 18 20 15 24 22 4 1 10 17 15 14 22 19 25 28 28 36 26 4 -1 6 5 2 3 3
8 10 11 12 22 33 35 30 19 6 9 16 6 19 2 13 22 9 -0 10 -0 9 5 2 12 21 21 13 6 8 11 8 12 7 6 17 16 12 16 16 21 11 -0 4 12 15 16 13 14 11 6 1 1 2
10 9 8 8 8 8 9 15 22 24 23 13 11 18 19 16 6 19 23 19 12 12 11 13 14 10 28 -6 17 6 15 15 10 12 12 18 13 8 19 23 21 21 9 9 6 7 9 3 4 3 3 4 4 14
12 18 15 17 14 11 10 10 11 18 15 1 11 12 16 17 11 10 11 17 21 18 18 14 11 17 20 10 16 8 9 12 8 13 18 13 11 -2 -6 8 5 6 7 4 10 8 6 4 5 8 13 18 13 12
15 11 10 11 11 13 15 17 16 7 7 7 21 7 7 12 14 16 17 18 19 19 20 15 17 4 14 16 12 11 1 4 14 13 12 4 3 3 7 1 5 10 6 5 5 4 7 14 15 9 10 9 9 10
10 10 12 14 14 15 15 15 8 14 19 14 14 14 13 6 6 7 11 12 14 14 18 9 7 7 0 5 3 4 13 13 8 12 15 16 16 12 6 5 6 6 5 7 14 11 9 8 8 8 8 8 8 6
6 6 8 8 8 8 5 8 2 12 14 8 13 14 13 12 13 9 9 8 8 8 10 12 11 17 17 17 14 13 9 9 8 8 7 6 5 4 5 6 10 8 9 10 10 9 8 9 8 8 7 4 4 6
4 4 5 5 7 7 11 13 14 3 15 5 3 -1 0 -1 1 1 2 1 2 3 6 5 4 10 11 10 9 10 5 4 8 9 6 7 7 9 10 10 9 10 10 10 10 10 10 8 4 2 6 10 9 6
8 9 10 9 10 9 6 6 5 10 15 17 11 15 7 9 6 7 6 12 14 10 10 11 13 15 12 8 7 6 7 10 9 10 11 9 8 8 9 10 12 12 13 12 8 5 3 2 6 9 7 6 8 8
9 10 12 14 14 15 18 15 9 10 15 4 8 11 15 16 14 16 16 9 4 5 9 14 13 12 10 7 5 6 9 11 17 9 6 9 12 13 14 13 12 8 5 3 1 0 3 6 7 8 8 7 7 9
10 10 13 13 26 25 13 17 17 15 15 8 20 20 16 12 10 12 9 8 5 5 10 15 13 12 9 10 11 10 7 9 -1 9 14 15 17 14 9 4 2 2 4 2 -1 2 8 8 8 9 10 12 11 10
15 18 21 18 10 7 11 12 12 2 4 18 13 21 16 11 20 20 19 18 18 21 17 14 16 16 16 13 12 4 9 11 15 14 15 13 7 4 2 2 3 2 2 3 8 9 10 12 12 10 11 18 23 21
21 22 6 15 12 -4 7 15 21 26 21 8 10 14 7 18 1 2 19 8 16 25 17 11 9 8 7 9 10 12 15 14 14 14 9 5 4 3 2 -1 4 6 10 10 10 11 9 11 19 24 19 19 22 24
13 19 11 -1 5 8 7 6 3 10 12 14 11 13 10 14 22 9 3 7 24 22 14 13 9 7 11 18 19 18 14 12 8 5 3 2 4 4 4 6 8 10 10 12 11 16 23 21 16 15 18 16 13 13
19 5 -1 -0 5 7 2 15 11 7 18 30 18 21 42 20 20 11 14 19 24 13 12 20 19 10 9 14 14 9 7 4 3 2 5 6 5 7 12 11 12 10 13 20 22 17 14 12 12 15 14 15 15 20
12 7 9 9 17 20 16 6 17 28 20 19 22 19 8 11 10 21 26 23 17 11 10 9 4 5 6 2 1 2 5 7 7 6 7 12 15 11 10 11 17 21 18 13 13 14 10 8 14 15 8 13 11 13
15 23 26 23 15 12 16 20 14 2 2 7 9 8 5 6 8 13 13 11 10 9 8 6 5 1 0 3 6 11 10 10 14 17 17 11 8 12 18 18 10 10 13 15 13 11 7 13 17 13 10 13 13 12
10 10 9 10 10 12 10 10 12 11 12 11 9 9 8 8 5 5 6 5 6 6 6 6 6 8 10 12 13 18 20 18 12 6 4 11 20 14 8 11 16 18 15 14 13 8 15 16 11 12 13 14 14 11
1 1 3 4 6 8 9 9 10 9 8 8 8 8 8 9 9 8 9 10 10 10 12 14 18 16 17 18 15 11 9 8 5 12 20 12 10 14 17 19 22 19 14 12 14 16 11 9 15 14 15 15 13 14
10 11 10 12 15 14 13 13 14 14 13 9 6 9 11 10 9 9 13 18 18 15 13 14 13 8 10 15 11 3 6 12 19 11 10 13 13 16 19 17 13 10 15 16 10 11 12 16 16 15 16 15 14 13
16 20 19 19 16 13 14 9 6 10 11 12 10 18 20 22 21 26 27 22 15 12 9 9 12 13 6 7 11 10 18 12 8 12 14 14 17 16 15 13 17 16 10 8 9 13 15 17 15 15 15 15 16 14
Height
2890 2903 2917 2929 2940 2950 2960 2969 2976 2983 2989 2996 3002 3009 3016 3023 3032 3039 3047 3051 3056 3059 3064 3069 3075 3080 3084 3087 3090 3092 3095 3096 3098 3100 3101 3102 3102 3102 3101 3101 3101 3102 3102 3101 3100 3100 3097 3095 3095 3096 3096 3092 3092 3091
2902 2914 2925 2936 2946 2956 2965 2972 2979 2984 2992 2998 3004 3010 3016 3025 3033 3038 3043 3050 3054 3060 3065 3069 3074 3079 3082 3085 3088 3089 3092 3093 3094 3095 3097 3097 3097 3096 3096 3096 3096 3098 3097 3097 3098 3095 3092 3091 3092 3091 3090 3088 3086 3085
2913 2923 2933 2942 2952 2961 2969 2976 2982 2988 2994 3001 3006 3012 3019 3027 3032 3037 3044 3050 3055 3059 3063 3068 3072 3076 3079 3082 3084 3087 3088 3090 3091 3092 3093 3093 3093 3093 3092 3091 3091 3092 3092 3090 3090 3089 3089 3088 3085 3084 3083 3081 3079 3077
2923 2931 2941 2949 2958 2966 2973 2979 2986 2992 2997 3004 3009 3015 3021 3028 3035 3041 3045 3049 3054 3058 3062 3066 3070 3073 3077 3079 3082 3084 3085 3086 3088 3088 3089 3089 3089 3088 3087 3087 3088 3090 3088 3085 3083 3084 3082 3081 3079 3077 3075 3073 3071 3069
2931 2940 2947 2955 2963 2969 2976 2983 2989 2995 3000 3006 3011 3017 3022 3028 3034 3039 3044 3048 3052 3059 3060 3064 3068 3071 3074 3077 3079 3080 3082 3083 3084 3084 3084 3084 3084 3084 3082 3081 3082 3084 3083 3081 3077 3078 3074 3073 3072 3070 3067 3065 3063 3060
2938 2944 2953 2959 2965 2972 2979 2986 2992 2998 3003 3008 3013 3018 3024 3029 3034 3038 3043 3047 3051 3055 3059 3062 3066 3068 3072 3074 3076 3077 3078 3079 3079 3080 3080 3078 3079 3079 3075 3074 3078 3077 3076 3075 3072 3070 3067 3066 3064 3062 3059 3057 3054 3052
2944 2951 2957 2962 2968 2976 2983 2989 2995 3000 3005 3010 3015 3020 3025 3030 3034 3038 3043 3047 3050 3054 3057 3060 3063 3066 3069 3071 3073 3074 3074 3075 3075 3075 3074 3074 3073 3072 3068 3067 3072 3071 3069 3067 3065 3062 3060 3058 3054 3053 3051 3048 3046 3044
2947 2953 2960 2966 2971 2977 2985 2991 2996 3002 3006 3011 3016 3021 3026 3030 3034 3038 3042 3045 3048 3052 3055 3057 3060 3064 3066 3068 3069 3070 3070 3070 3068 3068 3068 3068 3066 3064 3059 3062 3063 3063 3061 3060 3058 3055 3052 3049 3046 3044 3041 3039 3037 3035
2951 2957 2963 2969 2972 2978 2985 2992 2997 3003 3008 3013 3017 3021 3025 3029 3033 3037 3040 3043 3046 3051 3050 3053 3056 3060 3062 3064 3065 3065 3064 3063 3062 3060 3062 3062 3057 3055 3054 3055 3055 3054 3052 3050 3049 3047 3044 3041 3038 3035 3033 3031 3030 3028
2954 2960 2966 2971 2975 2979 2986 2992 2997 3003 3008 3013 3017 3020 3024 3027 3031 3035 3038 3039 3041 3043 3045 3048 3053 3055 3059 3059 3058 3060 3057 3057 3053 3054 3053 3050 3046 3047 3048 3046 3045 3045 3043 3041 3039 3037 3034 3032 3031 3028 3026 3023 3022 3021
2956 2962 2967 2973 2977 2982 2986 2991 2996 3001 3005 3009 3013 3018 3022 3025 3029 3031 3033 3035 3036 3037 3040 3043 3047 3049 3050 3051 3052 3053 3050 3050 3045 3047 3046 3040 3037 3039 3039 3038 3036 3036 3035 3033 3031 3029 3027 3025 3023 3022 3020 3018 3017 3016
2958 2962 2967 2972 2977 2982 2986 2990 2994 2999 3003 3007 3012 3016 3019 3022 3024 3027 3026 3029 3030 3033 3035 3037 3039 3041 3042 3044 3045 3045 3045 3043 3039 3037 3036 3031 3030 3032 3032 3030 3029 3028 3027 3025 3024 3022 3020 3018 3017 3016 3015 3015 3013 3012
2962 2964 2968 2972 2977 2981 2986 2988 2992 2995 3000 3004 3008 3012 3015 3017 3018 3018 3019 3021 3025 3025 3028 3031 3034 3036 3036 3039 3038 3039 3037 3034 3032 3030 3028 3026 3026 3025 3024 3023 3022 3021 3020 3019 3018 3016 3015 3014 3013 3012 3011 3010 3009 3008
2969 2971 2974 2976 2978 2980 2983 2987 2991 2994 2999 3002 3006 3009 3011 3010 3010 3012 3015 3018 3020 3022 3024 3026 3029 3030 3030 3033 3032 3032 3030 3028 3025 3024 3022 3022 3021 3019 3020 3019 3019 3018 3017 3016 3015 3014 3013 3012 3011 3010 3009 3008 3007 3005
2972 2973 2976 2978 2980 2982 2985 2987 2989 2992 2996 2999 3002 3003 3004 3005 3008 3010 3012 3014 3016 3018 3020 3022 3024 3026 3026 3026 3026 3025 3024 3022 3021 3019 3019 3020 3019 3019 3018 3018 3017 3016 3015 3015 3014 3013 3012 3011 3009 3007 3005 3003 3001 3000
2974 2976 2978 2980 2982 2984 2986 2988 2990 2993 2995 2998 2999 3001 3002 3004 3005 3008 3010 3011 3013 3014 3016 3019 3020 3021 3022 3021 3020 3019 3019 3018 3018 3018 3018 3018 3018 3018 3017 3016 3015 3015 3014 3014 3012 3010 3008 3006 3005 3003 3001 2998 2996 2994
2977 2978 2980 2982 2984 2985 2987 2989 2991 2993 2995 2997 2998 2999 3001 3002 3004 3005 3007 3009 3010 3012 3013 3014 3015 3016 3016 3015 3015 3016 3015 3016 3016 3017 3018 3017 3016 3015 3014 3014 3013 3012 3011 3009 3008 3006 3004 3002 3000 2998 2996 2993 2990 2987
2981 2982 2983 2985 2986 2987 2989 2991 2992 2993 2994 2996 2998 2998 3000 3001 3003 3004 3005 3007 3009 3009 3010 3011 3012 3012 3013 3012 3013 3014 3013 3014 3014 3015 3015 3014 3013 3012 3011 3010 3010 3009 3007 3006 3004 3001 2999 2996 2994 2991 2988 2985 2982 2979
2986 2987 2988 2989 2990 2991 2992 2993 2995 2994 2995 2997 2998 2999 3000 3001 3002 3003 3004 3005 3006 3006 3008 3008 3009 3009 3010 3010 3010 3010 3011 3012 3012 3012 3011 3010 3009 3008 3007 3006 3006 3004 3002 3000 2998 2995 2992 2990 2987 2984 2981 2978 2974 2969
2988 2989 2989 2990 2992 2992 2994 2995 2995 2996 2996 2997 2998 2999 3000 3001 3001 3002 3002 3002 3002 3003 3004 3005 3006 3006 3006 3006 3007 3007 3007 3008 3008 3008 3007 3006 3005 3004 3003 3002 3000 2997 2995 2994 2992 2990 2987 2985 2982 2978 2974 2969 2964 2959
2989 2990 2990 2990 2991 2992 2993 2993 2993 2994 2995 2995 2996 2998 2998 2998 2998 2999 2999 2999 2999 2999 3001 3002 3001 3002 3002 3002 3003 3004 3004 3004 3003 3003 3002 3001 2999 2998 2997 2995 2994 2992 2991 2989 2987 2984 2981 2977 2972 2968 2963 2959 2953 2947
2987 2988 2988 2988 2989 2989 2990 2991 2992 2992 2993 2992 2993 2993 2992 2993 2994 2994 2994 2994 2994 2995 2997 2998 2998 2998 2998 2998 2999 2999 2998 2998 2999 2998 2997 2995 2993 2992 2991 2990 2989 2987 2985 2982 2979 2975 2971 2966 2961 2956 2951 2946 2940 2934
2985 2985 2985 2985 2987 2987 2989 2989 2989 2989 2990 2989 2990 2989 2989 2989 2989 2990 2989 2988 2989 2990 2991 2992 2993 2993 2994 2994 2994 2995 2993 2993 2992 2992 2990 2989 2987 2987 2986 2984 2982 2980 2977 2974 2970 2966 2961 2955 2949 2944 2938 2932 2925 2920
2983 2984 2984 2984 2985 2986 2987 2987 2987 2987 2987 2987 2987 2986 2986 2985 2986 2985 2984 2984 2984 2985 2985 2986 2987 2988 2988 2989 2990 2990 2989 2988 2986 2984 2983 2982 2982 2980 2979 2977 2974 2972 2968 2964 2959 2954 2949 2943 2937 2931 2925 2918 2912 2905
2984 2984 2985 2984 2985 2987 2986 2985 2985 2985 2985 2985 2984 2983 2982 2983 2983 2982 2981 2980 2980 2980 2980 2981 2982 2982 2983 2983 2983 2983 2981 2980 2979 2979 2978 2977 2976 2974 2971 2968 2965 2962 2958 2953 2949 2944 2938 2932 2925 2919 2913 2906 2899 2893
2982 2983 2984 2984 2984 2985 2984 2984 2984 2983 2983 2982 2981 2980 2979 2979 2979 2978 2977 2976 2976 2975 2976 2977 2978 2978 2978 2978 2977 2976 2975 2975 2975 2974 2973 2971 2968 2966 2962 2959 2956 2951 2946 2941 2937 2931 2926 2919 2913 2908 2902 2896 2891 2885
2982 2982 2984 2984 2984 2984 2983 2982 2981 2981 2980 2979 2978 2977 2976 2975 2974 2973 2972 2971 2972 2973 2973 2974 2974 2973 2973 2973 2973 2972 2971 2970 2969 2967 2965 2962 2959 2956 2952 2949 2945 2940 2935 2930 2924 2919 2914 2909 2904 2898 2893 2888 2882 2877
2981 2981 2982 2982 2981 2980 2980 2980 2979 2979 2978 2978 2977 2976 2975 2974 2973 2972 2971 2971 2971 2971 2972 2972 2971 2970 2970 2969 2968 2967 2965 2963 2961 2959 2956 2953 2949 2946 2942 2937 2932 2928 2923 2918 2915 2910 2905 2900 2895 2891 2886 2881 2876 2870
2980 2979 2979 2979 2979 2979 2979 2979 2978 2978 2977 2976 2976 2975 2974 2973 2972 2971 2971 2970 2970 2969 2969 2969 2968 2967 2965 2963 2961 2959 2957 2955 2953 2949 2946 2943 2940 2936 2931 2927 2924 2920 2916 2911 2906 2902 2897 2893 2888 2884 2879 2874 2868 2863
2979 2979 2978 2978 2978 2978 2978 2977 2976 2975 2975 2974 2973 2973 2972 2971 2970 2969 2968 2967 2967 2966 2965 2963 2961 2960 2958 2956 2954 2952 2949 2946 2943 2941 2938 2935 2931 2927 2923 2919 2915 2911 2907 2903 2899 2895 2891 2886 2881 2877 2872 2868 2863 2859
2979 2978 2978 2977 2976 2975 2974 2973 2973 2972 2971 2970 2969 2969 2968 2967 2965 2964 2963 2962 2960 2959 2957 2955 2954 2952 2950 2948 2946 2944 2942 2939 2936 2933 2929 2926 2922 2918 2914 2910 2905 2902 2898 2895 2891 2887 2884 2879 2875 2871 2867 2862 2858 2854
2976 2976 2974 2973 2972 2971 2970 2969 2968 2967 2966 2965 2964 2963 2962 2961 2959 2958 2957 2955 2953 2951 2950 2948 2947 2945 2943 2941 2939 2936 2934 2930 2927 2924 2921 2917 2913 2909 2905 2901 2898 2894 2891 2888 2884 2880 2876 2872 2868 2864 2860 2856 2853 2849
2973 2971 2970 2969 2968 2967 2966 2966 2964 2962 2961 2959 2957 2956 2954 2954 2952 2951 2950 2948 2947 2946 2944 2942 2940 2938 2936 2934 2931 2928 2925 2922 2919 2916 2912 2909 2905 2901 2898 2894 2891 2887 2884 2881 2877 2874 2869 2865 2861 2857 2854 2850 2847 2844